TimeMDT,TemperatureF,Dew PointF,Humidity,Sea Level PressureIn,VisibilityMPH,Wind Direction,Wind SpeedMPH,Gust SpeedMPH,PrecipitationIn,Events,Conditions,WindDirDegrees,DateUTC
12:56 AM,28.0,21.9,78,30.06,10.0,ESE,15.0,-,N/A,,Mostly Cloudy,120,2013-04-05 06:56:00
1:56 AM,28.9,23.0,78,30.05,10.0,SE,17.3,-,N/A,,Overcast,130,2013-04-05 07:56:00
2:56 AM,28.9,23.0,78,30.01,10.0,SE,20.7,26.5,N/A,,Overcast,130,2013-04-05 08:56:00
3:56 AM,28.9,24.1,82,29.97,10.0,SE,19.6,-,N/A,,Overcast,130,2013-04-05 09:56:00
4:56 AM,28.9,24.1,82,29.97,10.0,SE,16.1,24.2,N/A,,Overcast,140,2013-04-05 10:56:00
5:56 AM,28.0,23.0,81,29.94,10.0,SE,19.6,-,N/A,,Partly Cloudy,130,2013-04-05 11:56:00
6:56 AM,27.0,23.0,85,29.91,10.0,SE,21.9,27.6,N/A,,Mostly Cloudy,140,2013-04-05 12:56:00
7:56 AM,28.9,23.0,78,29.90,10.0,SE,20.7,29.9,N/A,,Clear,140,2013-04-05 13:56:00
8:56 AM,30.9,21.9,69,29.88,10.0,SSE,20.7,33.4,N/A,,Partly Cloudy,150,2013-04-05 14:56:00
9:56 AM,34.0,23.0,64,29.86,10.0,SSE,25.3,33.4,N/A,,Clear,150,2013-04-05 15:56:00
10:56 AM,35.1,21.9,59,29.84,10.0,SSE,24.2,31.1,N/A,,Partly Cloudy,160,2013-04-05 16:56:00
11:56 AM,41.0,23.0,49,29.78,10.0,SSE,19.6,29.9,N/A,,Clear,150,2013-04-05 17:56:00
12:56 PM,46.9,24.1,41,29.73,10.0,South,17.3,25.3,N/A,,Clear,170,2013-04-05 18:56:00
1:56 PM,50.0,26.1,39,29.70,10.0,SSE,11.5,-,N/A,,Clear,160,2013-04-05 19:56:00
2:56 PM,51.1,27.0,39,29.69,10.0,SSE,11.5,19.6,N/A,,Clear,160,2013-04-05 20:56:00
3:56 PM,53.1,27.0,37,29.66,10.0,SSE,11.5,-,N/A,,Clear,160,2013-04-05 21:56:00
4:56 PM,53.1,28.0,38,29.65,10.0,SE,8.1,-,N/A,,Clear,140,2013-04-05 22:56:00
5:56 PM,52.0,28.0,40,29.65,10.0,SE,10.4,-,N/A,,Clear,140,2013-04-05 23:56:00
6:56 PM,50.0,28.0,43,29.65,10.0,SE,8.1,-,N/A,,Scattered Clouds,130,2013-04-06 00:56:00
7:56 PM,46.9,28.9,50,29.68,10.0,South,6.9,-,N/A,,Overcast,170,2013-04-06 01:56:00
8:56 PM,45.0,34.0,65,29.68,10.0,South,10.4,-,0.00,Rain,Light Rain,190,2013-04-06 02:56:00
9:56 PM,45.0,36.0,71,29.67,10.0,SSW,13.8,-,0.00,,Overcast,210,2013-04-06 03:56:00
10:56 PM,48.0,39.0,71,29.65,10.0,SSW,9.2,-,N/A,,Overcast,200,2013-04-06 04:56:00
11:56 PM,48.9,41.0,74,29.65,10.0,West,8.1,-,N/A,,Overcast,270,2013-04-06 05:56:00